INTELSAT 21 (IS-21)

Last updated on Tue Oct 21 2025 00:02:52 GMT+0000 (Coordinated Universal Time)

1 38749U 12045A 25293.46881766 .00000000 00000+0 00000+0 0 9998 2 38749 0.0145 223.5554 0002408 355.6099 280.7821 1.00269742 48124
UTC large
Height (km)
Speed (km/s)
/
Latitude / Longitude
Inclination (degrees)
Orbital Period (minutes)
Azimuth
Elevation
Range (km)
Doppler Factor

Next 0 passes for location: London (51.5072 / 0.1276)

Sorry there are no passes over London.